COSMOS 1989 (ETALON 1)

Last updated on Sat Sep 05 2026 00:03:39 GMT+0000 (Coordinated Universal Time)

1 19751U 89001C 26247.27259139 .00000030 00000+0 00000+0 0 9991 2 19751 64.9962 69.4930 0023375 217.3872 314.4300 2.13155908293050
UTC large
Height (km)
Speed (km/s)
/
Latitude / Longitude
Inclination (degrees)
Orbital Period (minutes)
Azimuth
Elevation
Range (km)
Doppler Factor

Next 0 passes for location: London (51.5072 / 0.1276)

No passes found over London.
COSMOS 1989 (ETALON 1)